TimeEST,TemperatureF,Dew PointF,Humidity,Sea Level PressureIn,VisibilityMPH,Wind Direction,Wind SpeedMPH,Gust SpeedMPH,PrecipitationIn,Events,Conditions,WindDirDegrees,DateUTC
12:53 AM,57.0,55.0,93,30.23,10.0,Calm,Calm,-,N/A,,Overcast,0,2013-01-01 05:53:00
1:53 AM,57.0,55.0,93,30.22,9.0,Calm,Calm,-,N/A,,Overcast,0,2013-01-01 06:53:00
2:53 AM,59.0,57.0,93,30.21,10.0,SSE,3.5,-,N/A,,Overcast,150,2013-01-01 07:53:00
3:53 AM,57.9,55.0,90,30.19,10.0,Calm,Calm,-,N/A,,Mostly Cloudy,0,2013-01-01 08:53:00
4:53 AM,55.0,53.1,93,30.17,8.0,SE,4.6,-,N/A,,Partly Cloudy,130,2013-01-01 09:53:00
5:53 AM,54.0,52.0,93,30.16,7.0,SSE,4.6,-,N/A,,Scattered Clouds,150,2013-01-01 10:53:00
6:53 AM,54.0,52.0,93,30.17,10.0,East,3.5,-,N/A,,Clear,100,2013-01-01 11:53:00
7:53 AM,55.0,53.1,93,30.18,9.0,ESE,5.8,-,N/A,,Clear,120,2013-01-01 12:53:00
8:53 AM,64.0,57.9,80,30.18,10.0,Calm,Calm,-,N/A,,Clear,0,2013-01-01 13:53:00
9:53 AM,71.1,57.9,63,30.18,10.0,South,8.1,-,N/A,,Clear,170,2013-01-01 14:53:00
10:53 AM,77.0,57.0,50,30.18,10.0,South,13.8,-,N/A,,Clear,170,2013-01-01 15:53:00
11:53 AM,78.1,57.0,48,30.15,10.0,SSW,13.8,-,N/A,,Scattered Clouds,200,2013-01-01 16:53:00
12:53 PM,79.0,57.0,47,30.13,10.0,South,10.4,16.1,N/A,,Mostly Cloudy,170,2013-01-01 17:53:00
1:53 PM,80.1,57.9,47,30.09,10.0,SSW,9.2,-,N/A,,Mostly Cloudy,210,2013-01-01 18:53:00
2:53 PM,79.0,57.9,48,30.08,10.0,SSW,11.5,-,N/A,,Scattered Clouds,200,2013-01-01 19:53:00
3:53 PM,79.0,57.9,48,30.07,10.0,South,6.9,-,N/A,,Mostly Cloudy,180,2013-01-01 20:53:00
4:53 PM,75.9,59.0,56,30.07,10.0,SW,10.4,-,N/A,,Clear,220,2013-01-01 21:53:00
5:53 PM,72.0,60.1,66,30.08,10.0,WSW,5.8,-,N/A,,Clear,240,2013-01-01 22:53:00
6:53 PM,68.0,60.1,76,30.09,10.0,West,4.6,-,N/A,,Clear,280,2013-01-01 23:53:00
7:53 PM,63.0,60.1,90,30.10,10.0,Calm,Calm,-,N/A,,Clear,0,2013-01-02 00:53:00
8:53 PM,62.1,59.0,90,30.10,10.0,Calm,Calm,-,N/A,,Partly Cloudy,0,2013-01-02 01:53:00
9:53 PM,60.1,57.9,93,30.10,10.0,SE,3.5,-,N/A,,Clear,130,2013-01-02 02:53:00
10:53 PM,59.0,57.0,93,30.10,10.0,Calm,Calm,-,N/A,,Clear,0,2013-01-02 03:53:00
11:26 PM,57.2,55.4,94,30.09,1.8,Calm,Calm,-,N/A,,Partly Cloudy,0,2013-01-02 04:26:00
11:38 PM,57.2,55.4,94,30.09,4.0,East,3.5,-,N/A,,Partly Cloudy,100,2013-01-02 04:38:00
11:53 PM,57.9,55.9,93,30.09,8.0,East,3.5,-,N/A,,Scattered Clouds,100,2013-01-02 04:53:00